Соседи

Ник (возраст) Город, адрес С нами с На сайте Cообщений
в форуме/
комменты
Фотографии/
заметки
syantovich (18) 25.09.18 25.09.18 23:03 0/0 0/0
tor2211 (18) 25.09.18 25.09.18 21:37 0/0 0/0
luck02 (18) 25.09.18 26.09.18 13:53 0/0 0/0
tor22 (18) 25.09.18 0/0 0/0
artembagaev (18) 25.09.18 16.10.18 15:09 0/0 0/0
lyudmila.volgina (49) 25.09.18 13.10.18 20:03 2/0 0/0
selo (18) 25.09.18 27.09.18 01:10 0/6 0/0
recruiter (18) 25.09.18 16.10.18 12:14 1/0 0/0
datulik (18) 25.09.18 12.10.18 20:12 0/8 0/0
aligjeri-v (18) 24.09.18 24.09.18 21:32 0/0 0/0
prometey2018 (18) 24.09.18 24.09.18 19:07 0/0 0/0
lora159 (18) 24.09.18 08.10.18 01:07 1/0 0/0
victor1955 (18) 24.09.18 24.09.18 17:49 0/0 0/0
sunflowerpetzoo (18) 24.09.18 24.09.18 10:56 0/1 0/0
grau_elizaveta (28) Москва 23.09.18 24.09.18 00:09 0/0 0/0
fr1day31415 (18) 23.09.18 23.09.18 20:31 0/0 0/0
mariasunshine (18) 23.09.18 0/0 0/0
andreaspovarov () 23.09.18 23.09.18 15:43 1/0 0/0
Илья Шоркин () 23.09.18 05.10.18 18:06 1/0 0/0
uliboktebededmokar1 (18) 23.09.18 06.10.18 15:24 0/0 0/0
spirin (69) 22.09.18 26.09.18 09:24 0/0 0/0
inakutjina (26) 22.09.18 15.10.18 00:15 5/0 0/0
viktor27121983 (18) 22.09.18 22.09.18 14:43 0/0 0/0
skif-tempus (18) 22.09.18 0/0 0/0
isorochan (18) 21.09.18 13.10.18 09:34 0/0 0/0
larakroft (52) Одинцово 21.09.18 08.10.18 08:21 0/0 0/0
semenaganov () 21.09.18 23.09.18 15:36 0/0 0/0
mon (18) 21.09.18 21.09.18 03:57 1/0 0/0
gugo1995g (46) 20.09.18 20.09.18 22:41 0/0 0/0
miniki (18) 20.09.18 24.09.18 19:32 1/0 0/0
leyley (23) Одинцово 20.09.18 12.10.18 23:13 4/0 0/0
eto_fiasko_bratan (18) 20.09.18 12.10.18 16:42 2/0 0/0
ulia2015 (53) 20.09.18 21.09.18 15:45 0/0 0/0
vesyloe-reklama (34) 20.09.18 20.09.18 16:21 0/0 0/0
m-viktorov1 (18) 20.09.18 20.09.18 13:34 0/0 0/0
nasyrova (18) 19.09.18 20.09.18 11:40 0/0 0/0
scorpik90 (18) 19.09.18 20.09.18 11:28 0/0 0/0
helleniya (18) 19.09.18 19.09.18 08:24 0/0 0/0
lect1980 (18) 18.09.18 23.09.18 12:23 0/0 0/0
gal754370ant (18) 18.09.18 10.10.18 12:28 0/0 0/0
dyatloff (18) Одинцово 18.09.18 09.10.18 13:57 0/0 0/0
jak950 (18) 18.09.18 18.09.18 18:13 0/0 0/0
olgaalekseevna (35) Одинцово, Ул.М.Жукова. 18.09.18 09.10.18 21:40 1/0 0/0
avt-1409 (18) 17.09.18 17.09.18 22:01 0/0 0/0
aqwer1905 (18) 17.09.18 17.09.18 20:39 0/0 0/0
olgaba91 (18) 17.09.18 17.09.18 20:16 0/0 0/0
avtocom (57) 17.09.18 17.09.18 19:03 0/0 0/0
dimitry81b (18) 17.09.18 17.09.18 15:48 0/0 0/0
simpleodi (18) 17.09.18 16.10.18 14:49 1/0 0/0
yury1000 (18) 17.09.18 17.09.18 16:23 1/0 0/0


Чтобы добавить информацию о себе заполните регистрационную анкету


Дни рождения
Поздравляем (121): MOHCTP (38), U4 (38), hronik (13), djam (32), candy-mia (29), katenchik (12), dim-dim456 (12), karLina (28), Andreanna (24), Germann (11), AlexMoroz (34), Ellena (38), Leonardo-co (10), 2145 (10), valia99 (77), lionig (54), mens09 (38), 3642823 (9), tatyana58 (60), u96 (9), dargoavaretz (9), ludmila1983 (9), c-grad (39), margo535 (42), ekibastos (58), nucha (35), leda (40), ellafree (34), alekskl (33), trinks (32), tiresxt (8), andreyg (8), serjio11 (8), annage (8), devione (8), doberman1980 (38), andrey_boss (39), sironya (38), plohish_ka (118), wishch (44), avatarka (31), melnat (36), svetlana_s_o (34), hyp0hektik (27), kenz (38), tatyana-kozar (42), leprosorium (39), ekaterina999 (42), icevita (7), zkw (7), iskra_cat (7), dinale (7), valentinka719 (7), nata31122011 (7), swetlanatrifonova (42), chgr73 (28), aleks_vasilenko (31), remy_mrz (28), city-f (9), katiche2609 (28), barabashin (41), aesuper (24), eei (24), ded_vandal (24), omega-group (24), avantoo (24), shopmatras (24), graftelegraf (46), rdfhnbhf (34), sovetnik1980 (24), hitrik (24), veselova773 (24), mishalyub06 (24), mishal06 (24), ruson (24), novoselam (24), irishka82 (36), denis16 (34), duk (48), katenka084 (35), kov_ev (32), mariam442781515 (27), dvs (49), maria_zvezdny (45), maria_silencio (45), spez10 (43), marusya27 (34), nelli96 (22), evgen123 (30), katerinakor (34), bangg (28), romanesb (23), savdeeva (23), hfljcnm (23), omelchyk (23), sashapopova86 (23), vladlengutenberg (23), master1960 (23), rok88 (23), q1w2e3r4t54 (23), flowersalina (23), istina (51), janna1610 (34), istina2014 (51), pasuk (22), igor-79ru (39), massage-viktor (38), dashaaa (27), vssteble-1488 (23), diana1984 (34), dasha91 (27), saverdan (38), kat12012011 (32), trikvetr.psy (38), mamont22 (26), a.s.k.57 (61), igorius2010 (20), inspiration8nsg (22), yuriolegovich (54), alena_somova_90 (19), gas62rus (30)